Flag for India

Past Weather in Hoshiarpur, Punjab, India — Yesterday and Last 2 Weeks

Now
84 °F

Haze.


Feels Like: 104 °F
Forecast: 91 / 59 °F
Wind: 7 mph from Northwest

Location: Amritsar Airport
Current Time: Oct 24, 2020 at 12:43:49 pm
Latest Report: Oct 24, 2020 at 12:00 pm
Visibility: 2 mi
Pressure29.83 "Hg
Humidity: 100%
Dew Point: 84 °F
Location of HoshiarpurLocation

Past Weather in Hoshiarpur — Graph

°F

Hoshiarpur Temperature Yesterday

Maximum temperature yesterday: 88 °F (at 1:30 pm)
Minimum temperature yesterday: 59 °F (at 7:00 am)
Average temperature yesterday: 74 °F

High & Low Weather Summary for the Past Weeks

 TemperatureHumidityPressure
High95 °F (Oct 11, 2:00 pm)100% (Oct 16, 6:30 am)29.92 "Hg (Oct 16, 6:30 am)
Low59 °F (Oct 22, 7:00 am)27% (Oct 18, 1:30 pm)29.62 "Hg (Oct 12, 5:00 pm)
Average76 °F65%29.78 "Hg
* Reported Oct 9 11:30 am — Oct 24 11:30 am, Hoshiarpur. Weather by CustomWeather, © 2020

Note: Actual official high and low records may vary slightly from our data, if they occured in-between our weather recording intervals... More about our weather records

Hoshiarpur Weather History for the Previous 24 Hours

Scroll right to see more
 ConditionsComfort  
Time TempWeatherWind HumidityBarometerVisibility
11:30 am
Sat, Oct 24
82 °FHaze.5 mph42%29.83 "Hg2 mi
11:00 am81 °FHaze.5 mph48%29.83 "Hg1 mi
10:30 am79 °FHaze.5 mph54%29.83 "Hg1 mi
10:00 am77 °FHaze.No wind61%29.83 "Hg1 mi
8:30 am66 °FFog.2 mph83%29.83 "Hg1 mi
8:00 am63 °FFog.No wind88%29.80 "Hg1 mi
7:30 am63 °FFog.No wind88%29.80 "Hg1 mi
7:00 am63 °FFog.No wind94%29.80 "Hg1 mi
6:30 am63 °FFog.No wind88%29.77 "Hg1 mi
5:30 am61 °FFog.2 mph94%29.77 "Hg1 mi
3:30 am64 °FFog.No wind88%29.77 "Hg1 mi
3:00 am63 °FFog.No wind88%29.77 "Hg1 mi
2:30 am64 °FFog.No wind83%29.77 "Hg1 mi
2:00 am64 °FFog.No wind83%29.77 "Hg1 mi
1:00 am66 °FFog.No wind83%29.77 "Hg1 mi
12:30 am66 °FFog.No wind83%29.77 "Hg1 mi
12:00 am68 °FFog.No wind78%29.80 "Hg1 mi
11:30 pm
Fri, Oct 23
68 °FFog.No wind78%29.80 "Hg1 mi
11:00 pm68 °FFog.No wind73%29.80 "Hg1 mi
10:00 pm70 °FHaze.No wind69%29.77 "Hg1 mi
9:30 pm70 °FHaze.No wind69%29.77 "Hg1 mi
9:00 pm70 °FHaze.No wind69%29.77 "Hg2 mi
8:30 pm72 °FHaze.No wind65%29.77 "Hg2 mi
8:00 pm72 °FHaze.No wind69%29.77 "Hg2 mi
7:30 pm72 °FHaze.No wind73%29.74 "Hg2 mi
7:00 pm73 °FHaze.No wind69%29.74 "Hg2 mi
6:30 pm75 °FHaze.No wind65%29.74 "Hg2 mi
6:00 pm79 °FHaze.No wind58%29.74 "Hg2 mi
5:30 pm82 °FHaze.No wind51%29.71 "Hg2 mi
5:00 pm84 °FHaze.No wind45%29.71 "Hg2 mi
4:30 pm86 °FHaze.2 mph43%29.74 "Hg2 mi
4:00 pm86 °FHaze.6 mph43%29.74 "Hg2 mi
3:30 pm86 °FHaze.2 mph40%29.74 "Hg2 mi
3:00 pm86 °FHaze.6 mph40%29.74 "Hg2 mi
2:30 pm86 °FHaze.7 mph40%29.77 "Hg2 mi
2:00 pm86 °FHaze.No wind43%29.77 "Hg2 mi
1:30 pm88 °FHaze.2 mph40%29.77 "Hg2 mi
1:00 pm84 °FHaze.No wind45%29.80 "Hg2 mi
12:30 pm84 °FHaze.No wind45%29.80 "Hg2 mi
Weather by CustomWeather, © 2020

See weather overview